Regional Weather Roundup
Issued by NWS

Home | Current Version | Previous Version | Graphics & Text | Print | Product List | Glossary Off
Versions: 1 2 3 4 5 6 7 8 9 10 11 12 13 14 15 16 17 18 19 20 21 22 23 24 25 26 27 28 29 30 31 32 33 34 35 36 37 38 39 40 41 42 43 44 45 46 47 48 49 50

000
ASUS43 KDMX 082006
RWRIA

WEATHER ROUNDUP FOR IOWA
NATIONAL WEATHER SERVICE DES MOINES IA
200 PM CST THU DEC 08 2016

NOTE: "FAIR" INDICATES FEW OR NO CLOUDS BELOW 12,000 FEET WITH NO
SIGNIFICANT WEATHER AND/OR OBSTRUCTIONS TO VISIBILITY.

* - THESE STATIONS ARE NOT NWS STATIONS...THUS NOT UNDER NWS
QUALITY CONTROL.  THEY ALSO DO NOT REPORT WEATHER SUCH
AS PRECIPITATION OR FOG.

IAZ001>003-012>014-020>022-031>034-043>046-082100-
   NORTHWEST IOWA

CITY           SKY/WX    TMP DP  RH WIND       PRES   REMARKS
CARROLL *      SUNNY     23  10  58 NW21G29   30.51S WCI   8
DENISON *      SUNNY     23  10  58 NW20G26   30.52S WCI   8
LE MARS *      SUNNY     21   7  53 NW20G25   30.57S WCI   6
SHELDON *      MOSUNNY   21  10  63 NW21G26   30.49F WCI   6
SIOUX CITY     SUNNY     24   7  48 NW22      30.58S WCI   9
SPENCER        SUNNY     23  10  57 NW22G35   30.48F WCI   8
STORM LAKE *   SUNNY     21   9  58 NW23      30.49S WCI   5
$$

IAZ055>058-069>071-079>083-090>094-082100-
   SOUTHWEST IOWA

CITY           SKY/WX    TMP DP  RH WIND       PRES   REMARKS
ATLANTIC *     SUNNY     23   9  54 NW20G26   30.54F WCI   8
AUDUBON *      SUNNY     21  10  63 NW10G18   30.52R WCI  10
CLARINDA *     MOSUNNY   25  10  54 N20G26    30.59F WCI  11
COUNCIL BLFS * SUNNY     23   9  54 NW18      30.56F WCI   9
CRESTON *      SUNNY     23   9  54 NW17G26   30.53R WCI   9
HARLAN  *      SUNNY     23  10  58 NW22      30.58F WCI   8
LAMONI         SUNNY     24  10  55 NW20      30.52S WCI  10
RED OAK *      MOSUNNY   25  10  54 NW21      30.57F WCI  10
$$

IAZ047>049-059>061-072>074-084-082100-
   CENTRAL IOWA

CITY           SKY/WX    TMP DP  RH WIND       PRES   REMARKS
AMES           CLOUDY    23  13  65 NW15      30.49S WCI  10
ANKENY *       CLOUDY    23  10  58 NW17G30   30.51S WCI   9
BOONE *        CLOUDY    23  10  58 W17G28    30.47S WCI   9
CHARITON *     MOSUNNY   23  10  58 NW15G23   30.50S WCI  10
DES MOINES     PTSUNNY   24  10  55 NW21G26   30.50S WCI   9
GRINNELL*      CLOUDY    21  13  71 NW15      30.47R WCI   7
MARSHALLTOWN   FLURRIES  20  12  71 NW22G30   30.46R WCI   3
NEWTON *       CLOUDY    21  10  63 NW18G26   30.47F WCI   6
PELLA *        CLOUDY    23  11  60 NW16      30.50F WCI   9
PERRY *          N/A     24  14  65 NW17G23   30.51S WCI  10
$$

IAZ004>006-015-016-023>025-035-036-082100-
   NORTH CENTRAL IOWA

CITY           SKY/WX    TMP DP  RH WIND       PRES   REMARKS
ALGONA *       MOSUNNY   23  12  63 NW23      30.45S WCI   7
CLARION *      PTSUNNY   25  14  63 NW21G30   30.44F WCI  10
ESTHERVILLE    CLOUDY    22  11  62 NW22      30.46S WCI   6
FORT DODGE *   MOSUNNY   23  12  63 NW14G22   30.48S WCI  11
MASON CITY     CLOUDY    21  12  68 NW21      30.43S WCI   5
WEBSTER CITY * MOSUNNY   25  14  63 NW21G29   30.45S WCI  10
IOWA FALLS *   CLOUDY    23  15  71 NW20G25   30.45S WCI   8
$$

IAZ007>011-017>019-026>030-037>042-050>054-066-082100-
   NORTHEAST IOWA

CITY           SKY/WX    TMP DP  RH WIND       PRES   REMARKS
CEDAR RAPIDS   CLOUDY    20  15  81 W21       30.42S WCI   4
CHARLES CITY * LGT SNOW  21  14  73 NW21G28   30.40S WCI   6
DECORAH *      FLURRIES  21  16  79 NW14G21   30.35R WCI   8
DUBUQUE        CLOUDY    20  15  81 W16       30.35R WCI   6
MONTICELLO *   FLURRIES  21  14  73 W16G23    30.39R WCI   7
OELWEIN *      FLURRIES  21  16  79 W18G26    30.40R WCI   6
WATERLOO       LGT SNOW  21  14  74 NW13G22   30.42S WCI   9
$$

IAZ064-065-067-068-078-082100-
   EAST CENTRAL IOWA

CITY           SKY/WX    TMP DP  RH WIND       PRES   REMARKS
DAVENPORT      FLURRIES  21  13  71 W22G28    30.41R WCI   5
IOWA CITY      CLOUDY    21  11  65 W18G26    30.47S WCI   6
MUSCATINE *    CLOUDY    23  12  63 NW18G24   30.47S WCI   9
QUAD CITIES    CLOUDY    22  12  65 W22G28    30.42R WCI   6
$$

IAZ062-063-075>077-085>089-095>099-082100-
   SOUTHEAST IOWA

CITY           SKY/WX    TMP DP  RH WIND       PRES   REMARKS
BURLINGTON     CLOUDY    20  11  68 NW16G23   30.47R WCI   6
FAIRFIELD *    CLOUDY    21   9  58 NW17G28   30.48S WCI   7
KEOKUK *       PTSUNNY   25  10  54 NW14G21   30.48R WCI  13
OTTUMWA        PTSUNNY   23   9  55 NW16G24   30.47F WCI  10
WASHINGTON *   CLOUDY    21  12  68 NW18G30   30.48S WCI   6
$$

ABBREVIATIONS USED IN REMARKS
   TC - TEMPERATURES IN CELSIUS
  WCI - WIND CHILL INDEX
   HX - HEAT INDEX
  VSB - VISIBILITY
$$





USA.gov is the U.S. government's official web portal to all federal, state and local government web resources and services.